DateTimeUTC,F1_A11,F1_S11,BsB_S11,BsG_S11,BsR_S11,BbsB_S11,BbsG_S11,BbsR_S11,BaB_A11,BaG_A11,BaR_A11,Tu_S11,T_S11,Uu_S11,U_S11,P_S11,T1_A11
2021-09-18T08:00:00Z,00000200,21000000,,,,,,,0000.24,0000.01,-000.29,18.3,25.4,,00.0,0655.6,31.1
2021-09-18T08:01:00Z,00000200,21000000,,,,,,,0000.03,0000.19,0000.07,18.3,25.5,,00.0,0655.6,31.1
2021-09-18T08:02:00Z,00000200,21000000,,,,,,,0000.07,0000.05,0000.10,18.3,25.5,,00.0,0655.6,31.1
2021-09-18T08:03:00Z,00000200,61000000,,,,,,,0000.76,0000.40,0000.50,18.3,25.5,,00.0,0655.6,31.0
2021-09-18T08:04:00Z,00000200,41000000,0001.45,0001.48,0001.08,-000.34,0000.49,-000.20,0000.50,0000.54,0000.23,18.4,25.3,,00.0,0656.4,31.0
2021-09-18T08:05:00Z,00000200,01000000,0002.74,0001.77,0001.17,0000.12,0000.40,0000.15,0000.46,0000.35,0000.41,18.4,25.2,,00.0,0656.5,31.0
2021-09-18T08:06:00Z,00000200,01000000,0002.26,0001.66,0001.15,-000.25,0000.39,-000.30,0000.23,0000.55,0000.21,18.3,25.1,,00.0,0656.5,31.0
2021-09-18T08:07:00Z,00000200,01000000,0001.75,0001.47,0000.93,0000.18,0000.21,-000.10,0000.19,-000.13,0000.21,18.2,25.1,,00.0,0656.5,31.0
2021-09-18T08:08:00Z,00000200,01000000,0002.74,0001.72,0000.95,-000.26,-000.01,-000.24,0000.55,0000.15,-000.04,18.2,25.0,,00.0,0656.4,31.0
2021-09-18T08:09:00Z,00000200,01000000,0002.61,0001.35,0001.05,-000.07,0000.40,0000.32,0000.38,0000.28,0000.58,18.2,25.0,,00.0,0656.5,31.0
2021-09-18T08:10:00Z,00000200,01000000,0001.54,0001.69,0000.71,0000.13,0000.44,-000.12,0000.27,0000.62,0000.37,18.2,25.0,,00.0,0656.4,31.0
2021-09-18T08:11:00Z,00000200,01000000,0002.08,0001.40,0000.77,0000.11,0000.36,-000.23,0000.40,0000.72,0000.17,18.3,25.0,,00.0,0656.5,31.0
2021-09-18T08:12:00Z,00000200,01000000,0002.27,0001.52,0000.92,0000.48,0000.24,-000.04,0000.66,0000.36,0000.50,18.4,25.1,,00.0,0656.5,31.0
2021-09-18T08:13:00Z,00000200,01000000,0003.02,0001.31,0001.43,0000.23,0000.50,0000.46,0000.46,0000.39,0000.30,18.5,25.1,,00.0,0656.5,31.0
2021-09-18T08:14:00Z,00000200,01000000,0002.95,0001.57,0001.18,-000.06,0000.39,0000.66,0000.60,0000.62,0000.29,18.6,25.2,,00.0,0656.5,31.0
2021-09-18T08:15:00Z,00000200,01000000,0001.90,0001.69,0001.26,0000.47,0000.29,0000.39,0000.89,0000.52,0000.58,18.6,25.2,,00.0,0656.5,31.0
2021-09-18T08:16:00Z,00000200,01000000,0002.09,0001.38,0000.88,0001.00,0000.43,0000.17,0000.29,0000.38,-000.05,18.6,25.2,,00.0,0656.4,31.0
2021-09-18T08:17:00Z,00000200,01000000,0002.29,0001.15,0001.03,-000.03,0000.59,-000.37,0000.08,0000.61,0000.52,18.6,25.2,,00.0,0656.5,31.0
2021-09-18T08:18:00Z,00000200,01000000,0001.71,0001.83,0000.79,0000.29,0000.56,0000.07,0000.10,-000.23,0000.21,18.5,25.1,,00.0,0656.4,31.0
2021-09-18T08:19:00Z,00000200,01000000,0001.21,0001.50,0000.65,0000.91,0000.50,0000.01,0000.16,0000.39,0000.05,18.4,25.1,,00.0,0656.4,31.0
2021-09-18T08:20:00Z,00000200,01000000,0001.81,0001.82,0000.85,0000.33,0000.49,0000.32,0000.75,0000.68,0000.31,18.3,25.1,,00.0,0656.4,31.0
2021-09-18T08:21:00Z,00000200,01000000,0002.03,0001.50,0000.98,0000.13,0000.39,-000.02,0000.15,0000.01,0000.34,18.3,25.0,,00.0,0656.4,31.0
2021-09-18T08:22:00Z,00000200,01000000,0003.05,0001.56,0000.79,0000.46,0000.30,0000.15,0000.18,-000.30,0000.18,18.2,25.0,,00.0,0656.4,31.0
2021-09-18T08:23:00Z,00000200,01000000,0002.00,0001.47,0001.22,0000.37,0000.51,0000.51,0000.90,0000.90,0000.42,18.2,24.9,,00.0,0656.4,31.0
2021-09-18T08:24:00Z,00000200,01000000,0001.81,0001.46,0000.77,0000.87,0000.25,-000.17,0000.47,0000.55,0000.47,18.2,24.9,,00.0,0656.4,31.0
2021-09-18T08:25:00Z,00000200,01000000,0002.62,0001.43,0000.19,0000.74,0000.56,0000.01,0000.61,0000.55,0000.57,18.2,24.9,,00.0,0656.4,31.0
2021-09-18T08:26:00Z,00000200,01000000,0002.10,0001.49,0001.64,0000.12,0000.13,0000.35,0000.57,0000.47,0000.64,18.3,25.0,,00.0,0656.4,31.0
2021-09-18T08:27:00Z,00000200,01000000,0002.53,0001.51,0000.51,-000.18,0000.54,-000.18,0000.48,0000.67,0000.16,18.4,25.0,,00.0,0656.4,31.0
2021-09-18T08:28:00Z,00000200,01000000,0002.81,0001.69,0000.52,0000.24,0000.41,-000.07,0000.95,0000.25,0000.54,18.5,25.1,,00.0,0656.4,31.1
2021-09-18T08:29:00Z,00000200,01000000,0002.11,0001.46,0000.42,0000.29,0000.45,-000.05,0000.32,0000.68,0000.33,18.6,25.1,,00.0,0656.4,31.0
2021-09-18T08:30:00Z,00000200,01000000,0002.73,0001.28,0001.18,-000.24,0000.30,0000.19,-000.03,0000.38,-000.29,18.6,25.2,,00.0,0656.5,31.0
2021-09-18T08:31:00Z,00000200,01000000,0002.47,0001.56,0000.69,-000.24,0000.35,0000.07,-000.46,-000.51,-000.29,18.7,25.2,,00.0,0656.5,31.1
2021-09-18T08:32:00Z,00000200,01000000,0002.24,0001.55,0000.75,-000.11,0000.38,-000.13,0000.02,0000.12,0000.18,18.6,25.2,,00.0,0656.4,31.1
2021-09-18T08:33:00Z,00000200,01000000,0002.33,0001.54,0000.62,-000.07,0000.23,0000.05,0000.03,-000.31,-000.30,18.6,25.2,,00.0,0656.4,31.0
2021-09-18T08:34:00Z,00000200,01000000,0002.18,0001.36,0000.96,0000.33,0000.39,0000.05,0000.18,0000.08,0000.33,18.5,25.1,,00.0,0656.5,31.0
2021-09-18T08:35:00Z,00000200,01000000,0001.23,0001.03,0000.52,-000.03,0000.28,0000.29,-000.64,-000.12,-000.08,18.4,25.1,,00.0,0656.4,31.0
2021-09-18T08:36:00Z,00000200,01000000,0001.57,0000.67,0000.11,-000.31,0000.53,-000.08,-000.06,-000.14,-000.08,18.3,25.0,,00.0,0656.4,31.0
2021-09-18T08:37:00Z,00000200,01000000,0001.67,0000.70,0000.14,0000.14,0000.25,-000.34,0000.23,-000.12,0000.05,18.3,25.0,,00.0,0656.4,31.0
2021-09-18T08:38:00Z,00000200,01000000,0001.17,0000.68,0000.37,-000.64,0000.21,-000.06,0000.53,0000.82,0000.23,18.2,25.0,,00.0,0656.4,31.0
2021-09-18T08:39:00Z,00000200,01000000,0001.49,0001.57,0000.91,0000.57,0000.36,0000.03,0000.77,0000.38,0000.57,18.2,25.0,,00.0,0656.4,31.0
2021-09-18T08:40:00Z,00000200,01000000,0002.53,0001.20,0000.81,0000.23,0000.41,0000.14,0001.64,0001.48,0001.03,18.2,25.0,,00.0,0656.4,31.0
2021-09-18T08:41:00Z,00000200,01000000,0001.53,0001.24,0000.55,-000.45,0000.58,-000.01,0000.15,0000.04,-000.00,18.3,25.0,,00.0,0656.5,31.0
2021-09-18T08:42:00Z,00000200,01000000,0001.68,0001.24,0000.79,0000.31,0000.30,-000.05,0000.25,0000.45,0000.38,18.4,25.0,,00.0,0656.4,31.0
2021-09-18T08:43:00Z,00000200,01000000,0002.76,0001.36,0000.81,0000.06,0000.35,-000.02,0000.73,0000.70,0000.86,18.5,25.1,,00.0,0656.5,31.0
2021-09-18T08:44:00Z,00000200,01000000,0001.80,0001.29,0000.73,0000.56,0000.32,-000.03,0000.40,0000.48,-000.01,18.5,25.1,,00.0,0656.4,31.0
2021-09-18T08:45:00Z,00000200,01000000,0002.26,0001.62,0000.79,0000.32,0000.29,0000.10,0000.02,-000.11,-000.20,18.5,25.1,,00.0,0656.4,31.0
2021-09-18T08:46:00Z,00000200,01000000,0001.83,0001.50,0000.72,-000.53,0000.67,-000.04,0000.63,0000.18,0000.50,18.4,25.1,,00.0,0656.4,31.0
2021-09-18T08:47:00Z,00000200,01000000,0001.78,0001.58,0000.46,-000.31,0000.45,-000.04,0000.53,0000.49,0000.41,18.3,25.0,,00.0,0656.4,31.0
2021-09-18T08:48:00Z,00000200,01000000,0002.13,0001.80,0000.98,0000.86,0000.26,0000.10,0000.35,0000.99,0000.27,18.3,25.0,,00.0,0656.4,31.0
2021-09-18T08:49:00Z,00000200,01000000,0002.81,0001.65,0001.09,0000.18,0000.28,0000.28,0000.67,0000.43,0000.69,18.2,24.9,,00.0,0656.4,31.0
2021-09-18T08:50:00Z,00000200,01000000,0002.44,0001.49,0000.90,-000.10,0000.01,0000.03,0000.76,0000.41,0000.14,18.1,24.9,,00.0,0656.4,31.0
2021-09-18T08:51:00Z,00000200,01000000,0002.79,0001.28,0001.08,-000.16,0000.51,0000.20,0000.48,0000.67,0000.60,18.1,24.9,,00.0,0656.4,30.9
2021-09-18T08:52:00Z,00000200,01000000,0002.17,0001.33,0001.08,-000.23,0000.29,0000.21,0000.75,0000.36,0000.38,18.0,24.8,,00.0,0656.4,30.9
2021-09-18T08:53:00Z,00000200,01000000,0001.61,0001.51,0001.02,-000.55,0000.45,0000.36,0000.69,0000.62,0000.24,18.0,24.8,,00.0,0656.4,30.9
2021-09-18T08:54:00Z,00000200,01000000,0002.23,0001.37,0000.68,-000.12,0000.13,0000.29,0000.51,0000.03,0000.76,18.0,24.8,,00.0,0656.4,30.9
2021-09-18T08:55:00Z,00000200,01000000,0002.24,0001.39,0000.62,-000.08,0000.58,0000.40,0000.12,0000.13,-000.05,18.0,24.8,,00.0,0656.4,31.0
2021-09-18T08:56:00Z,00000200,01000000,0001.33,0001.33,0000.84,0000.36,0000.23,0000.38,0000.36,0001.11,0000.24,18.1,24.8,,00.0,0656.4,31.0
2021-09-18T08:57:00Z,00000200,41000000,,,,,,,-000.49,-000.34,0000.09,18.2,24.9,,00.0,0656.3,31.0
2021-09-18T08:58:00Z,00000200,61000000,,,,,,,0000.37,0000.13,0000.17,17.9,25.1,,00.0,0655.5,31.0
2021-09-18T08:59:00Z,00000200,21000000,,,,,,,-000.01,0000.12,-000.10,18.0,25.2,,00.0,0655.5,31.0
